This is the latest recevied weather packets stored in our database for station/object HK6LRQ-25. If no packets are shown the sender has not sent any weather packets the latest 10 day(s).
| Time | Temp. | Humidity | Pressure | Rain* | Wind** | Luminosity | Snow |
|---|---|---|---|---|---|---|---|
| 1777831382 | 20° C | 79% | 1012 hPa | 0 mm | - | - | - |
| 1777829581 | 20° C | 80% | 1012 hPa | 0 mm | - | - | - |
| 1777827779 | 20° C | 86% | 1014 hPa | 0 mm | - | - | - |
| 1777825978 | 20.56° C | 80% | 1013 hPa | 0 mm | - | - | - |
| 1777824177 | 21.11° C | 90% | 1015 hPa | 0 mm | - | - | - |
| 1777822376 | 17.22° C | 84% | 1015 hPa | 0 mm | - | - | - |
| 1777820575 | 17.78° C | 92% | 1016 hPa | 0 mm | - | - | - |
| 1777818774 | 16.11° C | 84% | 1016 hPa | 0 mm | - | - | - |
| 1777816973 | 15.56° C | 91% | 1017 hPa | 0 mm | - | - | - |
| 1777815172 | 16.11° C | 89% | 1016 hPa | 0 mm | - | - | - |
| 1777813370 | 16.11° C | 94% | 1016 hPa | 0 mm | - | - | - |
| 1777811570 | 16.11° C | 93% | 1016 hPa | 0 mm | - | - | - |
| 1777809769 | 16.11° C | 93% | 1016 hPa | 0 mm | - | - | - |
| 1777807967 | 16.11° C | 93% | 1016 hPa | 0 mm | - | - | - |
| 1777806166 | 16.11° C | 94% | 1015 hPa | 0 mm | - | - | - |
| 1777804365 | 16.67° C | 93% | 1015 hPa | 0 mm | - | - | - |
| 1777802564 | 16.67° C | 93% | 1015 hPa | 0 mm | - | - | - |
| 1777800763 | 12.22° C | 92% | 1015 hPa | 0 mm | - | - | - |
| 1777798962 | 12.22° C | 92% | 1015 hPa | 0 mm | - | - | - |
| 1777797161 | 12.22° C | 93% | 1015 hPa | 0 mm | - | - | - |
| 1777795360 | 12.22° C | 92% | 1015 hPa | 0 mm | - | - | - |
| 1777793559 | 12.22° C | 93% | 1015 hPa | 0 mm | - | - | - |
| 1777791758 | 12.22° C | 92% | 1016 hPa | 0 mm | - | - | - |
| 1777789957 | 12.22° C | 93% | 1016 hPa | 0 mm | - | - | - |
| 1777788156 | 12.22° C | 93% | 1016 hPa | 0 mm | - | - | - |
* Rain latest hour (hover to see other rain measurements)
** Current wind speed in m/s (hover to see current wind gust speed)